Regional Weather Roundup
Issued by NWS

Home | Current Version | Previous Version | Text Only | Print | Product List | Glossary Off
Versions: 1 2 3 4 5 6 7 8 9 10 11 12 13 14 15 16 17 18 19 20 21 22 23 24 25 26 27 28 29 30 31 32 33 34 35 36 37 38 39 40 41 42 43 44 45 46 47 48 49

000
ASUS43 KDMX 220507
RWRIA

WEATHER ROUNDUP FOR IOWA
NATIONAL WEATHER SERVICE DES MOINES IA
1200 AM CDT FRI AUG 22 2014

NOTE: "FAIR" INDICATES FEW OR NO CLOUDS BELOW 12,000 FEET WITH NO
SIGNIFICANT WEATHER AND/OR OBSTRUCTIONS TO VISIBILITY.

* - THESE STATIONS ARE NOT NWS STATIONS...THUS NOT UNDER NWS
QUALITY CONTROL.  THEY ALSO DO NOT REPORT WEATHER SUCH
AS PRECIPITATION OR FOG.

IAZ001>003-012>014-020>022-031>034-043>046-220600-
   NORTHWEST IOWA

CITY           SKY/WX    TMP DP  RH WIND       PRES   REMARKS
CARROLL *      CLEAR     73  73 100 CALM      29.88S
CHEROKEE *     CLEAR     75  75 100 CALM      29.88R
DENISON *      CLEAR     75  75 100 NE3       29.86F
LE MARS *      CLEAR     77  73  88 CALM      29.88S
ORANGE CITY *  CLEAR     81  72  74 N5        29.89S HX  84
SHELDON *      CLEAR     72  72 100 NW3       29.88S
SIOUX CITY     PTCLDY    77  74  90 CALM      29.87R
SPENCER        CLEAR     72  69  90 NE3       29.89R
STORM LAKE *   CLEAR     75  75 100 S5        29.90R
$$

IAZ055>058-069>071-079>083-090>094-220600-
   SOUTHWEST IOWA

CITY           SKY/WX    TMP DP  RH WIND       PRES   REMARKS
ATLANTIC *     PTCLDY    77  75  94 CALM      29.86S
AUDUBON *      CLEAR     75  72  88 CALM      29.89F
CLARINDA *     PTCLDY    77  77 100 CALM      29.88R
COUNCIL BLFS * CLOUDY    79  79 100 SE5       29.86F HX  83
CRESTON *      CLEAR     77  77 100 SE6       29.89S
HARLAN  *      PTCLDY    75  75 100 CALM      29.91S
LAMONI         PTCLDY    81  75  82 S10       29.89R HX  87
RED OAK *      PTCLDY    79  77  94 E3        29.85F HX  83
SHENANDOAH *   PTCLDY    79  79 100 CALM      29.86S HX  83
$$

IAZ047>049-059>061-072>074-084-220600-
   CENTRAL IOWA

CITY           SKY/WX    TMP DP  RH WIND       PRES   REMARKS
AMES           CLEAR     73  72  96 NE3       29.88S
ANKENY *       CLEAR     75  73  94 CALM      29.87S
CHARITON *     PTCLDY    79  75  89 S10       29.89R HX  82
DES MOINES     PTCLDY    82  76  81 E5        29.87F HX  89
GRINNELL*      CLEAR     77  73  88 S6        29.89S
KNOXVILLE *    MOCLDY    79  75  89 VRB3      29.87S HX  82
MARSHALLTOWN   CLEAR     73  72  96 E3        29.88S FOG
PELLA *        CLEAR     80  76  87 SE3       29.89S HX  85
PERRY *          N/A     73  73 100 CALM      29.88S FOG
$$

IAZ004>006-015-016-023>025-035-036-220600-
   NORTH CENTRAL IOWA

CITY           SKY/WX    TMP DP  RH WIND       PRES   REMARKS
ALGONA *       CLEAR     75  73  94 S5        29.88S
CLARION *      CLEAR     73  73 100 S7        29.88S
ESTHERVILLE    CLEAR     69  68  96 CALM      29.89R
FORT DODGE *   CLEAR     75  72  88 CALM      29.89R
MASON CITY     CLEAR     73  72  96 S5        29.90R
FOREST CITY *  CLEAR     72  72 100 SE3       29.88S
IOWA FALLS *     N/A     72  70  94 CALM      29.90S
$$

IAZ007>011-017>019-026>030-037>042-050>054-066-220600-
   NORTHEAST IOWA

CITY           SKY/WX    TMP DP  RH WIND       PRES   REMARKS
CEDAR RAPIDS   PTCLDY    73  73 100 E3        29.89S FOG
CHARLES CITY * CLEAR     72  72 100 S7        29.90S
CLINTON *      CLOUDY    73  73 100 E6        29.94S
DECORAH *      PTCLDY    72  72 100 S6        29.90S
DUBUQUE        PTCLDY    71  70  96 NE3       29.93R
MONTICELLO *   CLEAR     72  72 100 CALM      29.91S FOG
OELWEIN *      CLEAR     72  72 100 SE6       29.92R FOG
WATERLOO       CLEAR     72  71  97 NE6       29.89R
$$

IAZ064-065-067-068-078-220600-
   EAST CENTRAL IOWA

CITY           SKY/WX    TMP DP  RH WIND       PRES   REMARKS
DAVENPORT      PTCLDY    75  73  93 E5        29.92R
IOWA CITY      FOG       72  72 100 CALM      29.90S VSB 3/4
MT. PLEASANT * PTCLDY    79  77  94 S5        29.90S HX  83
MUSCATINE *    CLEAR     75  73  94 CALM      29.90R
QUAD CITIES    MOCLDY    77  74  90 E3        29.90R
$$

IAZ062-063-075>077-085>089-095>099-220600-
   SOUTHEAST IOWA

CITY           SKY/WX    TMP DP  RH WIND       PRES   REMARKS
BURLINGTON     PTCLDY    79  77  94 S6        29.90S HX  83
FAIRFIELD *    MOCLDY    81  75  83 S6        29.89F HX  86
FORT MADISON * CLEAR     81  79  94 S5        29.91S HX  89
KEOKUK *       CLEAR     82  77  83 S8        29.90S HX  91
OSKALOOSA *    MOCLDY    79  75  89 SE5       29.89S HX  82
CENTERVILLE *  CLEAR     79  77  94 S8        29.91S HX  83
OTTUMWA        PTCLDY    79  75  87 SE7       29.88F HX  83
WASHINGTON *   MOCLDY    77  77 100 S6        29.89F
$$

ABBREVIATIONS USED IN REMARKS
   TC - TEMPERATURES IN CELSIUS
  WCI - WIND CHILL INDEX
   HX - HEAT INDEX
  VSB - VISIBILITY
$$




USA.gov is the U.S. government's official web portal to all federal, state and local government web resources and services.